Regional Weather Roundup
Issued by NWS

Home | Current Version | Previous Version | Graphics & Text | Print | Product List | Glossary On
Versions: 1 2 3 4 5 6 7 8 9 10 11 12 13 14 15 16 17 18 19 20 21 22 23 24 25 26 27 28
000
ASUS45 KSLC 240310
RWRUT

UTAH REGIONAL WEATHER ROUNDUP
NATIONAL WEATHER SERVICE SALT LAKE CITY UT
900 PM MDT MON MAY 23 2016

UTZ001>011-023>025-240400-

NORTHERN UTAH

CITY           SKY/WX    TMP DP  RH WIND       PRES   REMARKS
BRIGHAM CITY     N/A     62  37  39 CALM      29.84S
HILL AFB       PTCLDY    60  33  37 N6        29.84S
LOGAN          PTCLDY    57  40  52 N6        29.84S
OGDEN          PTCLDY    59  36  42 N6        29.82S
PROVO AIRPORT  PTCLDY    59  39  47 VRB5      29.81S
SALT LAKE CITY PTCLDY    61  37  41 N8        29.80F
VERNAL         CLOUDY    57  32  38 CALM      29.85R
WENDOVER       CLOUDY    61  32  33 NW10      29.82R
HEBER CITY     CLOUDY    57  30  35 CALM      29.84S
WEST JORDAN    CLEAR     59  36  41 W5        29.83R

$$

UTZ012>022-026-027-240400-

SOUTHERN/CENTRAL UTAH

CITY           SKY/WX    TMP DP  RH WIND       PRES   REMARKS
BLANDING       CLEAR     62  12  14 CALM      29.94S
BRYCE CANYON   PTCLDY    50  13  22 SW10      29.93S
CEDAR CITY     PTCLDY    58  19  22 SW8       29.83R
DELTA          PTCLDY    61  23  23 NE5       29.79R
HANKSVILLE     CLEAR     70  18  13 S9        29.78R
MILFORD        MOCLDY    64  17  16 S7        29.79R
MOAB/CYNLANDS  PTCLDY    66  13  12 SW5       29.77R
PRICE          MOCLDY    61  18  18 NE7       29.84S
ST GEORGE      MOCLDY    75  21  13 W10       29.73R
KANAB          CLEAR     61  27  27 W5        29.84R

$$

REGIONAL REPORTS     COLORADO/ARIZONA

CITY           SKY/WX    TMP DP  RH WIND       PRES   REMARKS
CRAIG, CO      CLOUDY    54  35  48 CALM      29.91R
GRAND JUNCTION PTCLDY    61  21  21 N6        29.82R
RIFLE          CLOUDY    59  27  29 NE5       29.86R
MONTROSE       CLOUDY    62  17  17 W5        29.89R
CORTEZ         CLEAR     51  28  41 S5        29.89R
PAGE, AZ       CLEAR     73  17  12 CALM      29.75R
GRAND CANYON   CLEAR     57  17  21 SW10      29.94R
KINGMAN        CLEAR     69  19  15 SW14      29.79S
FLAGSTAFF      CLEAR     52  19  27 SW10      29.99R

$$

REGIONAL REPORTS    NEVADA/IDAHO/WYOMING

CITY           SKY/WX    TMP DP  RH WIND       PRES   REMARKS
LAS VEGAS, NV  PTCLDY    78  24  13 SW7       29.65S
ELY            MOCLDY    50  26  39 S8        29.82S
ELKO           MOCLDY    53  38  56 SW5       29.85R
POCATELLO, ID  PTCLDY    52  40  63 S3        29.86R
BURLEY         MOCLDY    53  40  61 S7        29.84S
EVANSTON, WY   CLEAR     49  26  41 W3        29.93S
ROCK SPRINGS   CLEAR     47  32  56 SW8       29.94S
KEMMERER         N/A     45  28  53 N8        29.95S

$$




USA.gov is the U.S. government's official web portal to all federal, state and local government web resources and services.